Powrót do katalogu

NSS 6

AktywnyŁącznośćGEO
NORAD 27603·PAYLOAD·🇱🇺 Luxembourg

Wystrzelony Dec 17, 2002 z Guiana Space Centre

Loading…

TLE

ŚwieżeSource: Space-Track

Epoka: Sep 14, 2026, 13:25 UTC

1 27603U 02057A   26257.55923167  .00000059  00000-0  00000-0 0  9996
2 27603   5.6035  73.2757 0007791 219.2000 123.0992  0.99124171 86800

Śledź NSS 6 w czasie rzeczywistym z AllMySat

Download on the App Store